Location: Argonnex
(45.9500°N, 6.1333°E)
Time: 17:19:43
(UTC+00:00)

SL-08 R/B - Pass Details

Date: 28 January 2023
Orbit: 947 x 992 km, 83.0° (Epoch: 29 March)

Event Time Altitude Azimuth Distance (km) Brightness Sun altitude
Rises 19:04:48 0° 351° (N) 3,663 7.6 -26.1°
Reaches altitude 10° 19:07:18 10° 352° (N) 2,719 6.9 -26.5°
Maximum altitude 19:13:33 88° 79° (E) 983 4.4 -27.6°
Enters shadow 19:17:37 24° 172° (S) 1,924 5.9 -28.3°
Exits shadow 19:21:57 - 173° (S) 3,527 7.3 -29.1°
Sets 19:22:21 0° 173° (S) 3,681 7.4 -29.1°
